Year,Month,Day,Hour,Minute,Value (Times are PST for temperature in C)
2012,11,23,00,00,8.40
2012,11,23,00,01,8.40
2012,11,23,00,02,8.40
2012,11,23,00,03,8.40
2012,11,23,00,04,8.40
2012,11,23,00,05,8.40
2012,11,23,00,06,8.30
2012,11,23,00,07,8.30
2012,11,23,00,08,8.30
2012,11,23,00,09,8.30
2012,11,23,00,10,8.40
2012,11,23,00,11,8.40
2012,11,23,00,12,8.40
2012,11,23,00,13,8.40
2012,11,23,00,14,8.40
2012,11,23,00,15,8.40
2012,11,23,00,16,8.40
2012,11,23,00,17,8.30
2012,11,23,00,18,8.30
2012,11,23,00,19,8.40
2012,11,23,00,20,8.30
2012,11,23,00,21,8.40
2012,11,23,00,22,8.40
2012,11,23,00,23,8.40
2012,11,23,00,24,8.40
2012,11,23,00,25,8.40
2012,11,23,00,26,8.40
2012,11,23,00,27,8.50
2012,11,23,00,28,8.50
2012,11,23,00,29,8.60
2012,11,23,00,30,8.60
2012,11,23,00,31,8.70
2012,11,23,00,32,8.70
2012,11,23,00,33,8.80
2012,11,23,00,34,8.80
2012,11,23,00,35,8.80
2012,11,23,00,36,8.90
2012,11,23,00,37,8.90
2012,11,23,00,38,9.00
2012,11,23,00,39,9.00
2012,11,23,00,40,9.10
2012,11,23,00,41,9.20
2012,11,23,00,42,9.20
2012,11,23,00,43,9.30
2012,11,23,00,44,9.30
2012,11,23,00,45,9.40
2012,11,23,00,46,9.40
2012,11,23,00,47,9.50
2012,11,23,00,48,9.60
2012,11,23,00,49,9.60
2012,11,23,00,50,9.60
2012,11,23,00,51,9.70
2012,11,23,00,52,9.70
2012,11,23,00,53,9.70
2012,11,23,00,54,9.70
2012,11,23,00,55,9.80
2012,11,23,00,56,9.80
2012,11,23,00,57,9.80
2012,11,23,00,58,9.80
2012,11,23,00,59,9.80
2012,11,23,01,00,9.80
2012,11,23,01,01,9.80
2012,11,23,01,02,9.80
2012,11,23,01,03,9.80
2012,11,23,01,04,9.80
2012,11,23,01,05,9.80
2012,11,23,01,06,9.80
2012,11,23,01,07,9.80
2012,11,23,01,08,9.80
2012,11,23,01,09,9.80
2012,11,23,01,10,9.80
2012,11,23,01,11,9.80
2012,11,23,01,12,9.80
2012,11,23,01,13,9.80
2012,11,23,01,14,9.80
2012,11,23,01,15,9.80
2012,11,23,01,16,9.80
2012,11,23,01,17,9.90
2012,11,23,01,18,9.90
2012,11,23,01,19,9.90
2012,11,23,01,20,9.90
2012,11,23,01,21,9.90
2012,11,23,01,22,9.90
2012,11,23,01,23,9.90
2012,11,23,01,24,10.00
2012,11,23,01,25,10.10
2012,11,23,01,26,10.10
2012,11,23,01,27,10.10
2012,11,23,01,28,10.10
2012,11,23,01,29,10.10
2012,11,23,01,30,10.10
2012,11,23,01,31,10.10
2012,11,23,01,32,10.10
2012,11,23,01,33,10.10
2012,11,23,01,34,10.10
2012,11,23,01,35,10.10
2012,11,23,01,36,10.00
2012,11,23,01,37,10.00
2012,11,23,01,38,10.00
2012,11,23,01,39,10.00
2012,11,23,01,40,9.90
2012,11,23,01,41,9.90
2012,11,23,01,42,9.90
2012,11,23,01,43,9.90
2012,11,23,01,44,9.90
2012,11,23,01,45,9.80
2012,11,23,01,46,9.80
2012,11,23,01,47,9.80
2012,11,23,01,48,9.80
2012,11,23,01,49,9.80
2012,11,23,01,50,9.70
2012,11,23,01,51,9.70
2012,11,23,01,52,9.70
2012,11,23,01,53,9.70
2012,11,23,01,54,9.60
2012,11,23,01,55,9.60
2012,11,23,01,56,9.60
2012,11,23,01,57,9.50
2012,11,23,01,58,9.50
2012,11,23,01,59,9.50
2012,11,23,02,00,9.40
2012,11,23,02,01,9.40
2012,11,23,02,02,9.40
2012,11,23,02,03,9.30
2012,11,23,02,04,9.30
2012,11,23,02,05,9.30
2012,11,23,02,06,9.30
2012,11,23,02,07,9.30
2012,11,23,02,08,9.30
2012,11,23,02,09,9.30
2012,11,23,02,10,9.30
2012,11,23,02,11,9.20
2012,11,23,02,12,9.20
2012,11,23,02,13,9.20
2012,11,23,02,14,9.20
2012,11,23,02,15,9.20
2012,11,23,02,16,9.20
2012,11,23,02,17,9.20
2012,11,23,02,18,9.20
2012,11,23,02,19,9.20
2012,11,23,02,20,9.20
2012,11,23,02,21,9.20
2012,11,23,02,22,9.20
2012,11,23,02,23,9.20
2012,11,23,02,24,9.20
2012,11,23,02,25,9.20
2012,11,23,02,26,9.10
2012,11,23,02,27,9.10
2012,11,23,02,28,9.10
2012,11,23,02,29,9.10
2012,11,23,02,30,9.10
2012,11,23,02,31,9.10
2012,11,23,02,32,9.10
2012,11,23,02,33,9.10
2012,11,23,02,34,9.00
2012,11,23,02,35,9.00
2012,11,23,02,36,9.00
2012,11,23,02,37,9.00
2012,11,23,02,38,9.00
2012,11,23,02,39,9.00
2012,11,23,02,40,8.90
2012,11,23,02,41,8.90
2012,11,23,02,42,8.90
2012,11,23,02,43,8.90
2012,11,23,02,44,8.90
2012,11,23,02,45,8.90
2012,11,23,02,46,8.90
2012,11,23,02,47,8.80
2012,11,23,02,48,8.80
2012,11,23,02,49,8.80
2012,11,23,02,50,8.80
2012,11,23,02,51,8.80
2012,11,23,02,52,8.80
2012,11,23,02,53,8.80
2012,11,23,02,54,8.80
2012,11,23,02,55,8.80
2012,11,23,02,56,8.80
2012,11,23,02,57,8.80
2012,11,23,02,58,8.80
2012,11,23,02,59,8.80
2012,11,23,03,00,8.80
2012,11,23,03,01,8.80
2012,11,23,03,02,8.80
2012,11,23,03,03,8.80
2012,11,23,03,04,8.80
2012,11,23,03,05,8.80
2012,11,23,03,06,8.80
2012,11,23,03,07,8.80
2012,11,23,03,08,8.80
2012,11,23,03,09,8.80
2012,11,23,03,10,8.90
2012,11,23,03,11,8.90
2012,11,23,03,12,8.90
2012,11,23,03,13,8.90
2012,11,23,03,14,8.90
2012,11,23,03,15,8.90
2012,11,23,03,16,8.90
2012,11,23,03,17,8.90
2012,11,23,03,18,8.90
2012,11,23,03,19,8.90
2012,11,23,03,20,8.90
2012,11,23,03,21,8.90
2012,11,23,03,22,8.90
2012,11,23,03,23,8.90
2012,11,23,03,24,9.00
2012,11,23,03,25,9.00
2012,11,23,03,26,9.00
2012,11,23,03,27,9.10
2012,11,23,03,28,9.10
2012,11,23,03,29,9.10
2012,11,23,03,30,9.10
2012,11,23,03,31,9.10
2012,11,23,03,32,9.20
2012,11,23,03,33,9.20
2012,11,23,03,34,9.20
2012,11,23,03,35,9.20
2012,11,23,03,36,9.30
2012,11,23,03,37,9.30
2012,11,23,03,38,9.30
2012,11,23,03,39,9.30
2012,11,23,03,40,9.40
2012,11,23,03,41,9.40
2012,11,23,03,42,9.40
2012,11,23,03,43,9.40
2012,11,23,03,44,9.40
2012,11,23,03,45,9.40
2012,11,23,03,46,9.40
2012,11,23,03,47,9.40
2012,11,23,03,48,9.40
2012,11,23,03,49,9.40
2012,11,23,03,50,9.40
2012,11,23,03,51,9.40
2012,11,23,03,52,9.40
2012,11,23,03,53,9.40
2012,11,23,03,54,9.40
2012,11,23,03,55,9.40
2012,11,23,03,56,9.40
2012,11,23,03,57,9.40
2012,11,23,03,58,9.40
2012,11,23,03,59,9.40
2012,11,23,04,00,9.40
2012,11,23,04,01,9.40
2012,11,23,04,02,9.40
2012,11,23,04,03,9.40
2012,11,23,04,04,9.40
2012,11,23,04,05,9.40
2012,11,23,04,06,9.40
2012,11,23,04,07,9.40
2012,11,23,04,08,9.40
2012,11,23,04,09,9.40
2012,11,23,04,10,9.40
2012,11,23,04,11,9.40
2012,11,23,04,12,9.40
2012,11,23,04,13,9.40
2012,11,23,04,14,9.30
2012,11,23,04,15,9.30
2012,11,23,04,16,9.30
2012,11,23,04,17,9.30
2012,11,23,04,18,9.30
2012,11,23,04,19,9.30
2012,11,23,04,20,9.30
2012,11,23,04,21,9.30
2012,11,23,04,22,9.30
2012,11,23,04,23,9.30
2012,11,23,04,24,9.30
2012,11,23,04,25,9.30
2012,11,23,04,26,9.30
2012,11,23,04,27,9.30
2012,11,23,04,28,9.30
2012,11,23,04,29,9.30
2012,11,23,04,30,9.30
2012,11,23,04,31,9.30
2012,11,23,04,32,9.30
2012,11,23,04,33,9.30
2012,11,23,04,34,9.30
2012,11,23,04,35,9.30
2012,11,23,04,36,9.30
2012,11,23,04,37,9.20
2012,11,23,04,38,9.20
2012,11,23,04,39,9.20
2012,11,23,04,40,9.20
2012,11,23,04,41,9.20
2012,11,23,04,42,9.20
2012,11,23,04,43,9.20
2012,11,23,04,44,9.20
2012,11,23,04,45,9.20
2012,11,23,04,46,9.20
2012,11,23,04,47,9.10
2012,11,23,04,48,9.10
2012,11,23,04,49,9.10
2012,11,23,04,50,9.10
2012,11,23,04,51,9.10
2012,11,23,04,52,9.10
2012,11,23,04,53,9.10
2012,11,23,04,54,9.10
2012,11,23,04,55,9.10
2012,11,23,04,56,9.10
2012,11,23,04,57,9.10
2012,11,23,04,58,9.10
2012,11,23,04,59,9.10
2012,11,23,05,00,9.10
2012,11,23,05,01,9.10
2012,11,23,05,02,9.00
2012,11,23,05,03,9.00
2012,11,23,05,04,9.00
2012,11,23,05,05,9.00
2012,11,23,05,06,9.00
2012,11,23,05,07,9.00
2012,11,23,05,08,9.00
2012,11,23,05,09,9.00
2012,11,23,05,10,9.00
2012,11,23,05,11,9.00
2012,11,23,05,12,9.00
2012,11,23,05,13,9.00
2012,11,23,05,14,9.00
2012,11,23,05,15,9.00
2012,11,23,05,16,9.00
2012,11,23,05,17,9.00
2012,11,23,05,18,9.00
2012,11,23,05,19,9.00
2012,11,23,05,20,9.00
2012,11,23,05,21,9.00
2012,11,23,05,22,9.00
2012,11,23,05,23,9.00
2012,11,23,05,24,9.00
2012,11,23,05,25,9.00
2012,11,23,05,26,9.00
2012,11,23,05,27,9.00
2012,11,23,05,28,9.00
2012,11,23,05,29,9.10
2012,11,23,05,30,9.10
2012,11,23,05,31,9.10
2012,11,23,05,32,9.10
2012,11,23,05,33,9.10
2012,11,23,05,34,9.10
2012,11,23,05,35,9.10
2012,11,23,05,36,9.20
2012,11,23,05,37,9.20
2012,11,23,05,38,9.20
2012,11,23,05,39,9.20
2012,11,23,05,40,9.20
2012,11,23,05,41,9.20
2012,11,23,05,42,9.30
2012,11,23,05,43,9.30
2012,11,23,05,44,9.30
2012,11,23,05,45,9.30
2012,11,23,05,46,9.30
2012,11,23,05,47,9.30
2012,11,23,05,48,9.30
2012,11,23,05,49,9.30
2012,11,23,05,50,9.30
2012,11,23,05,51,9.30
2012,11,23,05,52,9.30
2012,11,23,05,53,9.30
2012,11,23,05,54,9.30
2012,11,23,05,55,9.30
2012,11,23,05,56,9.30
2012,11,23,05,57,9.30
2012,11,23,05,58,9.20
2012,11,23,05,59,9.20
2012,11,23,06,00,9.20
2012,11,23,06,01,9.20
2012,11,23,06,02,9.20
2012,11,23,06,03,9.20
2012,11,23,06,04,9.20
2012,11,23,06,05,9.20
2012,11,23,06,06,9.20
2012,11,23,06,07,9.10
2012,11,23,06,08,9.10
2012,11,23,06,09,9.10
2012,11,23,06,10,9.10
2012,11,23,06,11,9.00
2012,11,23,06,12,9.00
2012,11,23,06,13,9.00
2012,11,23,06,14,9.00
2012,11,23,06,15,9.00
2012,11,23,06,16,9.00
2012,11,23,06,17,9.00
2012,11,23,06,18,9.00
2012,11,23,06,19,9.00
2012,11,23,06,20,8.90
2012,11,23,06,21,8.90
2012,11,23,06,22,8.90
2012,11,23,06,23,8.90
2012,11,23,06,24,8.90
2012,11,23,06,25,8.90
2012,11,23,06,26,8.90
2012,11,23,06,27,8.90
2012,11,23,06,28,8.90
2012,11,23,06,29,8.90
2012,11,23,06,30,9.00
2012,11,23,06,31,9.00
2012,11,23,06,32,9.00
2012,11,23,06,33,9.00
2012,11,23,06,34,9.00
2012,11,23,06,35,9.00
2012,11,23,06,36,9.00
2012,11,23,06,37,9.00
2012,11,23,06,38,9.00
2012,11,23,06,39,8.90
2012,11,23,06,40,8.90
2012,11,23,06,41,8.90
2012,11,23,06,42,8.90
2012,11,23,06,43,8.90
2012,11,23,06,44,8.90
2012,11,23,06,45,8.90
2012,11,23,06,46,8.90
2012,11,23,06,47,8.90
2012,11,23,06,48,8.90
2012,11,23,06,49,8.90
2012,11,23,06,50,8.90
2012,11,23,06,51,8.90
2012,11,23,06,52,8.90
2012,11,23,06,53,8.90
2012,11,23,06,54,8.90
2012,11,23,06,55,8.90
2012,11,23,06,56,8.90
2012,11,23,06,57,8.80
2012,11,23,06,58,8.80
2012,11,23,06,59,8.80
2012,11,23,07,00,8.80
2012,11,23,07,01,8.80
2012,11,23,07,02,8.80
2012,11,23,07,03,8.80
2012,11,23,07,04,8.80
2012,11,23,07,05,8.80
2012,11,23,07,06,8.80
2012,11,23,07,07,8.80
2012,11,23,07,08,8.80
2012,11,23,07,09,8.80
2012,11,23,07,10,8.80
2012,11,23,07,11,8.80
2012,11,23,07,12,8.80
2012,11,23,07,13,8.80
2012,11,23,07,14,8.80
2012,11,23,07,15,8.80
2012,11,23,07,16,8.80
2012,11,23,07,17,8.80
2012,11,23,07,18,8.80
2012,11,23,07,19,8.80
2012,11,23,07,20,8.80
2012,11,23,07,21,8.80
2012,11,23,07,22,8.80
2012,11,23,07,23,8.80
2012,11,23,07,24,8.80
2012,11,23,07,25,8.80
2012,11,23,07,26,8.80
2012,11,23,07,27,8.80
2012,11,23,07,28,8.80
2012,11,23,07,29,8.80
2012,11,23,07,30,8.80
2012,11,23,07,31,8.80
2012,11,23,07,32,8.80
2012,11,23,07,33,8.80
2012,11,23,07,34,8.80
2012,11,23,07,35,8.80
2012,11,23,07,36,8.80
2012,11,23,07,37,8.80
2012,11,23,07,38,8.90
2012,11,23,07,39,8.80
2012,11,23,07,40,8.80
2012,11,23,07,41,8.80
2012,11,23,07,42,8.80
2012,11,23,07,43,8.80
2012,11,23,07,44,8.80
2012,11,23,07,45,8.80
2012,11,23,07,46,8.80
2012,11,23,07,47,8.80
2012,11,23,07,48,8.80
2012,11,23,07,49,8.80
2012,11,23,07,50,8.90
2012,11,23,07,51,8.90
2012,11,23,07,52,8.90
2012,11,23,07,53,9.00
2012,11,23,07,54,9.00
2012,11,23,07,55,9.00
2012,11,23,07,56,9.00
2012,11,23,07,57,9.00
2012,11,23,07,58,9.00
2012,11,23,07,59,9.00
2012,11,23,08,00,9.00
2012,11,23,08,01,9.00
2012,11,23,08,02,9.00
2012,11,23,08,03,8.90
2012,11,23,08,04,8.90
2012,11,23,08,05,8.90
2012,11,23,08,06,8.90
2012,11,23,08,07,8.90
2012,11,23,08,08,8.90
2012,11,23,08,09,8.90
2012,11,23,08,10,8.90
2012,11,23,08,11,8.90
2012,11,23,08,12,8.90
2012,11,23,08,13,8.80
2012,11,23,08,14,8.80
2012,11,23,08,15,8.80
2012,11,23,08,16,8.80
2012,11,23,08,17,8.80
2012,11,23,08,18,8.80
2012,11,23,08,19,8.80
2012,11,23,08,20,8.80
2012,11,23,08,21,8.80
2012,11,23,08,22,8.80
2012,11,23,08,23,8.80
2012,11,23,08,24,8.80
2012,11,23,08,25,8.80
2012,11,23,08,26,8.80
2012,11,23,08,27,8.80
2012,11,23,08,28,8.80
2012,11,23,08,29,8.80
2012,11,23,08,30,8.80
2012,11,23,08,31,8.80
2012,11,23,08,32,8.80
2012,11,23,08,33,8.90
2012,11,23,08,34,8.90
2012,11,23,08,35,8.90
2012,11,23,08,36,8.90
2012,11,23,08,37,8.90
2012,11,23,08,38,8.90
2012,11,23,08,39,8.90
2012,11,23,08,40,8.90
2012,11,23,08,41,8.90
2012,11,23,08,42,8.90
2012,11,23,08,43,8.90
2012,11,23,08,44,8.90
2012,11,23,08,45,8.90
2012,11,23,08,46,8.90
2012,11,23,08,47,8.90
2012,11,23,08,48,8.90
2012,11,23,08,49,8.90
2012,11,23,08,50,8.90
2012,11,23,08,51,8.90
2012,11,23,08,52,8.90
2012,11,23,08,53,8.90
2012,11,23,08,54,8.90
2012,11,23,08,55,8.90
2012,11,23,08,56,8.90
2012,11,23,08,57,8.90
2012,11,23,08,58,8.90
2012,11,23,08,59,8.90
2012,11,23,09,00,8.90
2012,11,23,09,01,8.90
2012,11,23,09,02,8.90
2012,11,23,09,03,9.00
2012,11,23,09,04,9.00
2012,11,23,09,05,9.00
2012,11,23,09,06,9.00
2012,11,23,09,07,9.00
2012,11,23,09,08,9.00
2012,11,23,09,09,9.00
2012,11,23,09,10,9.00
2012,11,23,09,11,9.00
2012,11,23,09,12,9.00
2012,11,23,09,13,9.00
2012,11,23,09,14,9.00
2012,11,23,09,15,9.00
2012,11,23,09,16,9.00
2012,11,23,09,17,9.00
2012,11,23,09,18,9.00
2012,11,23,09,19,9.10
2012,11,23,09,20,9.10
2012,11,23,09,21,9.10
2012,11,23,09,22,9.10
2012,11,23,09,23,9.10
2012,11,23,09,24,9.10
2012,11,23,09,25,9.10
2012,11,23,09,26,9.10
2012,11,23,09,27,9.10
2012,11,23,09,28,9.10
2012,11,23,09,29,9.10
2012,11,23,09,30,9.10
2012,11,23,09,31,9.10
2012,11,23,09,32,9.00
2012,11,23,09,33,9.00
2012,11,23,09,34,9.00
2012,11,23,09,35,9.00
2012,11,23,09,36,9.00
2012,11,23,09,37,9.00
2012,11,23,09,38,9.00
2012,11,23,09,39,9.00
2012,11,23,09,40,9.00
2012,11,23,09,41,8.90
2012,11,23,09,42,8.90
2012,11,23,09,43,8.90
2012,11,23,09,44,8.90
2012,11,23,09,45,8.90
2012,11,23,09,46,8.90
2012,11,23,09,47,8.90
2012,11,23,09,48,8.90
2012,11,23,09,49,8.90
2012,11,23,09,50,8.90
2012,11,23,09,51,9.00
2012,11,23,09,52,9.00
2012,11,23,09,53,9.00
2012,11,23,09,54,9.00
2012,11,23,09,55,9.00
2012,11,23,09,56,9.00
2012,11,23,09,57,9.00
2012,11,23,09,58,9.00
2012,11,23,09,59,9.10
2012,11,23,10,00,9.10
2012,11,23,10,01,9.10
2012,11,23,10,02,9.10
2012,11,23,10,03,9.10
2012,11,23,10,04,9.10
2012,11,23,10,05,9.10
2012,11,23,10,06,9.10
2012,11,23,10,07,9.10
2012,11,23,10,08,9.20
2012,11,23,10,09,9.20
2012,11,23,10,10,9.20
2012,11,23,10,11,9.20
2012,11,23,10,12,9.20
2012,11,23,10,13,9.20
2012,11,23,10,14,9.20
2012,11,23,10,15,9.20
2012,11,23,10,16,9.20
2012,11,23,10,17,9.20
2012,11,23,10,18,9.20
2012,11,23,10,19,9.20
2012,11,23,10,20,9.20
2012,11,23,10,21,9.20
2012,11,23,10,22,9.20
2012,11,23,10,23,9.20
2012,11,23,10,24,9.20
2012,11,23,10,25,9.20
2012,11,23,10,26,9.20
2012,11,23,10,27,9.20
2012,11,23,10,28,9.20
2012,11,23,10,29,9.20
2012,11,23,10,30,9.20
2012,11,23,10,31,9.20
2012,11,23,10,32,9.20
2012,11,23,10,33,9.20
2012,11,23,10,34,9.20
2012,11,23,10,35,9.20
2012,11,23,10,36,9.20
2012,11,23,10,37,9.20
2012,11,23,10,38,9.20
2012,11,23,10,39,9.20
2012,11,23,10,40,9.20
2012,11,23,10,41,9.20
2012,11,23,10,42,9.20
2012,11,23,10,43,9.20
2012,11,23,10,44,9.30
2012,11,23,10,45,9.30
2012,11,23,10,46,9.30
2012,11,23,10,47,9.30
2012,11,23,10,48,9.30
2012,11,23,10,49,9.30
2012,11,23,10,50,9.30
2012,11,23,10,51,9.30
2012,11,23,10,52,9.30
2012,11,23,10,53,9.30
2012,11,23,10,54,9.30
2012,11,23,10,55,9.30
2012,11,23,10,56,9.30
2012,11,23,10,57,9.30
2012,11,23,10,58,9.30
2012,11,23,10,59,9.30
2012,11,23,11,00,9.30
2012,11,23,11,01,9.30
2012,11,23,11,02,9.30
2012,11,23,11,03,9.30
2012,11,23,11,04,9.30
2012,11,23,11,05,9.30
2012,11,23,11,06,9.30
2012,11,23,11,07,9.30
2012,11,23,11,08,9.30
2012,11,23,11,09,9.30
2012,11,23,11,10,9.30
2012,11,23,11,11,9.40
2012,11,23,11,12,9.40
2012,11,23,11,13,9.40
2012,11,23,11,14,9.40
2012,11,23,11,15,9.40
2012,11,23,11,16,9.40
2012,11,23,11,17,9.40
2012,11,23,11,18,9.40
2012,11,23,11,19,9.40
2012,11,23,11,20,9.40
2012,11,23,11,21,9.40
2012,11,23,11,22,9.40
2012,11,23,11,23,9.40
2012,11,23,11,24,9.40
2012,11,23,11,25,9.50
2012,11,23,11,26,9.50
2012,11,23,11,27,9.50
2012,11,23,11,28,9.50
2012,11,23,11,29,9.50
2012,11,23,11,30,9.50
2012,11,23,11,31,9.50
2012,11,23,11,32,9.50
2012,11,23,11,33,9.60
2012,11,23,11,34,9.60
2012,11,23,11,35,9.60
2012,11,23,11,36,9.60
2012,11,23,11,37,9.60
2012,11,23,11,38,9.60
2012,11,23,11,39,9.60
2012,11,23,11,40,9.70
2012,11,23,11,41,9.70
2012,11,23,11,42,9.70
2012,11,23,11,43,9.70
2012,11,23,11,44,9.70
2012,11,23,11,45,9.70
2012,11,23,11,46,9.70
2012,11,23,11,47,9.80
2012,11,23,11,48,9.80
2012,11,23,11,49,9.80
2012,11,23,11,50,9.80
2012,11,23,11,51,9.80
2012,11,23,11,52,9.80
2012,11,23,11,53,9.90
2012,11,23,11,54,9.90
2012,11,23,11,55,9.90
2012,11,23,11,56,9.90
2012,11,23,11,57,9.90
2012,11,23,11,58,9.90
2012,11,23,11,59,9.90
2012,11,23,12,00,9.90
2012,11,23,12,01,9.90
2012,11,23,12,02,9.90
2012,11,23,12,03,10.00
2012,11,23,12,04,10.00
2012,11,23,12,05,10.00
2012,11,23,12,06,10.00
2012,11,23,12,07,10.10
2012,11,23,12,08,10.10
2012,11,23,12,09,10.10
2012,11,23,12,10,10.10
2012,11,23,12,11,10.10
2012,11,23,12,12,10.10
2012,11,23,12,13,10.10
2012,11,23,12,14,10.10
2012,11,23,12,15,10.10
2012,11,23,12,16,10.20
2012,11,23,12,17,10.20
2012,11,23,12,18,10.10
2012,11,23,12,19,10.10
2012,11,23,12,20,10.10
2012,11,23,12,21,10.10
2012,11,23,12,22,10.20
2012,11,23,12,23,10.20
2012,11,23,12,24,10.10
2012,11,23,12,25,10.10
2012,11,23,12,26,10.10
2012,11,23,12,27,10.10
2012,11,23,12,28,10.10
2012,11,23,12,29,10.10
2012,11,23,12,30,10.10
2012,11,23,12,31,10.00
2012,11,23,12,32,10.00
2012,11,23,12,33,10.00
2012,11,23,12,34,10.00
2012,11,23,12,35,10.00
2012,11,23,12,36,10.00
2012,11,23,12,37,10.00
2012,11,23,12,38,10.00
2012,11,23,12,39,10.00
2012,11,23,12,40,10.00
2012,11,23,12,41,10.00
2012,11,23,12,42,10.00
2012,11,23,12,43,10.00
2012,11,23,12,44,10.00
2012,11,23,12,45,10.00
2012,11,23,12,46,10.00
2012,11,23,12,47,10.00
2012,11,23,12,48,10.00
2012,11,23,12,49,10.10
2012,11,23,12,50,10.10
2012,11,23,12,51,10.10
2012,11,23,12,52,10.10
2012,11,23,12,53,10.10
2012,11,23,12,54,10.10
2012,11,23,12,55,10.10
2012,11,23,12,56,10.10
2012,11,23,12,57,10.10
2012,11,23,12,58,10.10
2012,11,23,12,59,10.10
2012,11,23,13,00,10.10
2012,11,23,13,01,10.10
2012,11,23,13,02,10.20
2012,11,23,13,03,10.20
2012,11,23,13,04,10.10
2012,11,23,13,05,10.10
2012,11,23,13,06,10.10
2012,11,23,13,07,10.10
2012,11,23,13,08,10.10
2012,11,23,13,09,10.20
2012,11,23,13,10,10.10
2012,11,23,13,11,10.10
2012,11,23,13,12,10.20
2012,11,23,13,13,10.20
2012,11,23,13,14,10.20
2012,11,23,13,15,10.20
2012,11,23,13,16,10.20
2012,11,23,13,17,10.20
2012,11,23,13,18,10.20
2012,11,23,13,19,10.20
2012,11,23,13,20,10.20
2012,11,23,13,21,10.20
2012,11,23,13,22,10.20
2012,11,23,13,23,10.20
2012,11,23,13,24,10.20
2012,11,23,13,25,10.20
2012,11,23,13,26,10.20
2012,11,23,13,27,10.20
2012,11,23,13,28,10.20
2012,11,23,13,29,10.10
2012,11,23,13,30,10.10
2012,11,23,13,31,10.10
2012,11,23,13,32,10.10
2012,11,23,13,33,10.10
2012,11,23,13,34,10.10
2012,11,23,13,35,10.10
2012,11,23,13,36,10.10
2012,11,23,13,37,10.10
2012,11,23,13,38,10.10
2012,11,23,13,39,10.10
2012,11,23,13,40,10.10
2012,11,23,13,41,10.10
2012,11,23,13,42,10.00
2012,11,23,13,43,10.00
2012,11,23,13,44,10.00
2012,11,23,13,45,10.00
2012,11,23,13,46,10.00
2012,11,23,13,47,10.10
2012,11,23,13,48,10.10
2012,11,23,13,49,10.10
2012,11,23,13,50,10.10
2012,11,23,13,51,10.00
2012,11,23,13,52,10.00
2012,11,23,13,53,10.00
2012,11,23,13,54,9.90
2012,11,23,13,55,9.90
2012,11,23,13,56,9.90
2012,11,23,13,57,9.90
2012,11,23,13,58,9.90
2012,11,23,13,59,9.90
2012,11,23,14,00,9.90
2012,11,23,14,01,9.90
2012,11,23,14,02,9.90
2012,11,23,14,03,9.90
2012,11,23,14,04,10.00
2012,11,23,14,05,9.90
2012,11,23,14,06,9.90
2012,11,23,14,07,9.90
2012,11,23,14,08,9.90
2012,11,23,14,09,10.00
2012,11,23,14,10,10.00
2012,11,23,14,11,10.00
2012,11,23,14,12,10.00
2012,11,23,14,13,10.00
2012,11,23,14,14,10.00
2012,11,23,14,15,10.00
2012,11,23,14,16,10.00
2012,11,23,14,17,10.00
2012,11,23,14,18,10.00
2012,11,23,14,19,10.00
2012,11,23,14,20,10.00
2012,11,23,14,21,10.00
2012,11,23,14,22,10.00
2012,11,23,14,23,10.00
2012,11,23,14,24,10.00
2012,11,23,14,25,10.00
2012,11,23,14,26,10.00
2012,11,23,14,27,10.00
2012,11,23,14,28,10.00
2012,11,23,14,29,10.00
2012,11,23,14,30,10.00
2012,11,23,14,31,10.00
2012,11,23,14,32,10.00
2012,11,23,14,33,10.00
2012,11,23,14,34,10.00
2012,11,23,14,35,10.00
2012,11,23,14,36,10.00
2012,11,23,14,37,10.00
2012,11,23,14,38,10.00
2012,11,23,14,39,10.00
2012,11,23,14,40,10.00
2012,11,23,14,41,10.00
2012,11,23,14,42,10.00
2012,11,23,14,43,10.00
2012,11,23,14,44,10.00
2012,11,23,14,45,10.00
2012,11,23,14,46,10.00
2012,11,23,14,47,10.00
2012,11,23,14,48,10.00
2012,11,23,14,49,10.00
2012,11,23,14,50,10.00
2012,11,23,14,51,10.00
2012,11,23,14,52,10.00
2012,11,23,14,53,10.00
2012,11,23,14,54,10.00
2012,11,23,14,55,10.00
2012,11,23,14,56,10.00
2012,11,23,14,57,10.00
2012,11,23,14,58,10.00
2012,11,23,14,59,10.00
2012,11,23,15,00,10.00
2012,11,23,15,01,10.00
2012,11,23,15,02,10.00
2012,11,23,15,03,10.00
2012,11,23,15,04,10.00
2012,11,23,15,05,10.00
2012,11,23,15,06,10.10
2012,11,23,15,07,10.10
2012,11,23,15,08,10.10
2012,11,23,15,09,10.10
2012,11,23,15,10,10.10
2012,11,23,15,11,10.10
2012,11,23,15,12,10.10
2012,11,23,15,13,10.00
2012,11,23,15,14,10.00
2012,11,23,15,15,10.00
2012,11,23,15,16,10.00
2012,11,23,15,17,10.00
2012,11,23,15,18,10.00
2012,11,23,15,19,10.00
2012,11,23,15,20,10.00
2012,11,23,15,21,10.00
2012,11,23,15,22,10.00
2012,11,23,15,23,10.00
2012,11,23,15,24,9.90
2012,11,23,15,25,9.90
2012,11,23,15,26,9.90
2012,11,23,15,27,9.90
2012,11,23,15,28,9.90
2012,11,23,15,29,9.90
2012,11,23,15,30,9.90
2012,11,23,15,31,10.00
2012,11,23,15,32,10.00
2012,11,23,15,33,10.00
2012,11,23,15,34,10.00
2012,11,23,15,35,10.00
2012,11,23,15,36,10.00
2012,11,23,15,37,10.00
2012,11,23,15,38,10.00
2012,11,23,15,39,10.00
2012,11,23,15,40,10.00
2012,11,23,15,41,10.00
2012,11,23,15,42,10.00
2012,11,23,15,43,10.00
2012,11,23,15,44,10.00
2012,11,23,15,45,10.00
2012,11,23,15,46,10.00
2012,11,23,15,47,10.00
2012,11,23,15,48,10.00
2012,11,23,15,49,9.90
2012,11,23,15,50,9.90
2012,11,23,15,51,9.90
2012,11,23,15,52,9.90
2012,11,23,15,53,9.90
2012,11,23,15,54,9.90
2012,11,23,15,55,9.90
2012,11,23,15,56,9.90
2012,11,23,15,57,9.90
2012,11,23,15,58,9.90
2012,11,23,15,59,9.80
2012,11,23,16,00,9.90
2012,11,23,16,01,9.90
2012,11,23,16,02,9.80
2012,11,23,16,03,9.90
2012,11,23,16,04,9.80
2012,11,23,16,05,9.80
2012,11,23,16,06,9.80
2012,11,23,16,07,9.80
2012,11,23,16,08,9.80
2012,11,23,16,09,9.80
2012,11,23,16,10,9.80
2012,11,23,16,11,9.80
2012,11,23,16,12,9.80
2012,11,23,16,13,9.80
2012,11,23,16,14,9.80
2012,11,23,16,15,9.80
2012,11,23,16,16,9.80
2012,11,23,16,17,9.80
2012,11,23,16,18,9.80
2012,11,23,16,19,9.80
2012,11,23,16,20,9.80
2012,11,23,16,21,9.80
2012,11,23,16,22,9.80
2012,11,23,16,23,9.80
2012,11,23,16,24,9.80
2012,11,23,16,25,9.80
2012,11,23,16,26,9.80
2012,11,23,16,27,9.80
2012,11,23,16,28,9.80
2012,11,23,16,29,9.80
2012,11,23,16,30,9.80
2012,11,23,16,31,9.80
2012,11,23,16,32,9.80
2012,11,23,16,33,9.70
2012,11,23,16,34,9.70
2012,11,23,16,35,9.70
2012,11,23,16,36,9.70
2012,11,23,16,37,9.70
2012,11,23,16,38,9.70
2012,11,23,16,39,9.70
2012,11,23,16,40,9.70
2012,11,23,16,41,9.70
2012,11,23,16,42,9.70
2012,11,23,16,43,9.70
2012,11,23,16,44,9.70
2012,11,23,16,45,9.70
2012,11,23,16,46,9.70
2012,11,23,16,47,9.70
2012,11,23,16,48,9.70
2012,11,23,16,49,9.70
2012,11,23,16,50,9.70
2012,11,23,16,51,9.70
2012,11,23,16,52,9.70
2012,11,23,16,53,9.70
2012,11,23,16,54,9.70
2012,11,23,16,55,9.60
2012,11,23,16,56,9.60
2012,11,23,16,57,9.60
2012,11,23,16,58,9.60
2012,11,23,16,59,9.60
2012,11,23,17,00,9.60
2012,11,23,17,01,9.60
2012,11,23,17,02,9.60
2012,11,23,17,03,9.60
2012,11,23,17,04,9.60
2012,11,23,17,05,9.60
2012,11,23,17,06,9.60
2012,11,23,17,07,9.60
2012,11,23,17,08,9.60
2012,11,23,17,09,9.60
2012,11,23,17,10,9.60
2012,11,23,17,11,9.50
2012,11,23,17,12,9.50
2012,11,23,17,13,9.50
2012,11,23,17,14,9.50
2012,11,23,17,15,9.50
2012,11,23,17,16,9.50
2012,11,23,17,17,9.50
2012,11,23,17,18,9.50
2012,11,23,17,19,9.50
2012,11,23,17,20,9.50
2012,11,23,17,21,9.50
2012,11,23,17,22,9.50
2012,11,23,17,23,9.50
2012,11,23,17,24,9.50
2012,11,23,17,25,9.50
2012,11,23,17,26,9.50
2012,11,23,17,27,9.50
2012,11,23,17,28,9.40
2012,11,23,17,29,9.40
2012,11,23,17,30,9.40
2012,11,23,17,31,9.40
2012,11,23,17,32,9.40
2012,11,23,17,33,9.40
2012,11,23,17,34,9.40
2012,11,23,17,35,9.40
2012,11,23,17,36,9.40
2012,11,23,17,37,9.30
2012,11,23,17,38,9.30
2012,11,23,17,39,9.30
2012,11,23,17,40,9.30
2012,11,23,17,41,9.30
2012,11,23,17,42,9.30
2012,11,23,17,43,9.30
2012,11,23,17,44,9.30
2012,11,23,17,45,9.30
2012,11,23,17,46,9.30
2012,11,23,17,47,9.30
2012,11,23,17,48,9.30
2012,11,23,17,49,9.30
2012,11,23,17,50,9.30
2012,11,23,17,51,9.30
2012,11,23,17,52,9.20
2012,11,23,17,53,9.20
2012,11,23,17,54,9.20
2012,11,23,17,55,9.20
2012,11,23,17,56,9.20